User: anonymous   Login
Location: Joplin
(37.0842°N, 94.5131°W)
Time: 18:11:16
(UTC-05:00)
Language:

NUDT-PHONESAT - Orbit

View from above orbital plane
View from above orbital plane
View from above satellite
View from above satellite

Ground track
Ground track

The orbit data is extracted from the following two-line orbital elements,

1 40900U 15049B   19139.49183367  .00002850  00000-0  12526-3 0  9990
2 40900  97.4375 149.1257 0011280 295.4149 218.1049 15.22679127203063
Epoch (UTC): 19 May 2019 11:48:14
Eccentricity: 0.0011280
inclination: 97.4375°
perigee height: 490 km
apogee height: 505 km
right ascension of ascending node: 149.1257°
argument of perigee: 295.4149°
revolutions per day: 15.22679127
mean anomaly at epoch: 218.1049°
orbit number at epoch: 20306

The dashed part of the orbit path shows where the satellite is in the earth's shadow,  

DLR